User: anonymous   Login
Location: Caltech
(34.1382°N, 118.1253°W)
Time: 21:55:50
(UTC-07:00)
Language:

Iridium 14 - Orbit

View from above orbital plane
View from above orbital plane
View from above satellite
View from above satellite

Ground track
Ground track

The orbit data is extracted from the following two-line orbital elements,

1 25777U 99032A   17235.40709717 +.00000092 +00000-0 +25917-4 0  9993
2 25777 086.3993 195.8535 0002364 089.6857 270.4609 14.34215281964235
Epoch (UTC): 23 August 2017 09:46:13
Eccentricity: 0.0002364
inclination: 86.3993°
perigee height: 776 km
apogee height: 779 km
right ascension of ascending node: 195.8535°
argument of perigee: 89.6857°
revolutions per day: 14.34215281
mean anomaly at epoch: 270.4609°
orbit number at epoch: 96423

The dashed part of the orbit path shows where the satellite is in the earth's shadow,  

DLR